{"data":{"norad_id":66059,"intl_designator":"2025-235B","name":"STARLINK-35560","alt_names":[],"object_type":"PAYLOAD","status":"ACTIVE","operator":null,"country":"US","launch_date":"2025-10-19","launch_site_code":"AFETR","launch_vehicle":null,"mission":null,"orbit_class":"UNKNOWN","rcs_meters":null,"size_class":null,"mass_kg":null,"dimensions":null,"purposes":["comms"],"wikipedia_slug":null,"has_3d_model":false,"image_url":null,"decayed_at":null,"tle_current":{"epoch":"2026-05-24T23:47:51.075168Z","epoch_age_seconds":78893,"freshness":"FRESH","line1":"1 66059U 25235B   26144.99156337  .00014418  00000+0  49796-3 0  9998","line2":"2 66059  53.1568 250.8563 0001035  75.9245 284.1871 15.30201374 34606","mean_motion":15.30201374,"eccentricity":0.0001035,"inclination_deg":53.1568,"raan_deg":250.8563,"arg_perigee_deg":75.9245,"mean_anomaly_deg":284.1871,"bstar":0.00049796,"rev_number":3460,"period_min":94.105261207274,"perigee_km":474.50164539148,"apogee_km":475.92028842063,"semimajor_km":6853.3479669061,"source":"CELESTRAK","updated_at":"2026-05-25T13:38:21.019913Z"}}}